This demonstration page uses our WeatherBlox Daily Observations layout. Learn more.

Left ArrowRight Arrow

Hourly Observations for January 20, 2016

Temp ( °F °C ) Dew Point ( °F °C ) Humidity (%) Winds ( mph kmh ) Pressure ( in mb ) Visibility ( mi km ) Precip ( " mm )
12:51 am 00:51 Clear 45 7.2 33 0.6 63 63 N N/A 30.11 1020 10 16 N/A
1:51 am 01:51 Mostly Clear 48 8.9 30 -1.1 50 50 ESE 7 11 30.06 1018 10 16 N/A
2:51 am 02:51 Clear 43 6.1 32 undefined 65 65 N 10 17 30.08 1019 10 16 N/A
3:51 am 03:51 Clear 42 5.6 30 -1.1 62 62 N N/A 30.07 1018 10 16 N/A
4:51 am 04:51 Clear 38 3.3 30 -1.1 73 73 N N/A 30.10 1019 10 16 N/A
5:51 am 05:51 Clear 36 2.2 30 -1.1 79 79 N N/A 30.12 1020 10 16 N/A
6:51 am 06:51 Clear 36 2.2 30 -1.1 79 79 SE 5 7 30.14 1021 10 16 N/A
7:51 am 07:51 Sunny 36 2.2 30 -1.1 79 79 E 5 7 30.15 1021 10 16 N/A
8:51 am 08:51 Sunny 42 5.6 31 -0.6 65 65 SE 5 7 30.16 1021 10 16 N/A
9:51 am 09:51 Sunny 49 9.4 31 -0.6 50 50 N N/A 30.14 1021 10 16 N/A
10:51 am 10:51 Sunny 54 12.2 32 undefined 43 43 VRB 3 6 30.14 1021 10 16 N/A
11:51 am 11:51 Sunny 57 13.9 32 undefined 39 39 W 6 9 30.09 1019 10 16 N/A
12:51 pm 12:51 Sunny 60 15.6 34 1.1 38 38 W 7 11 30.04 1017 10 16 N/A
1:51 pm 13:51 Sunny 64 17.8 35 1.7 34 34 W 12 19 29.99 1016 10 16 N/A
2:51 pm 14:51 Sunny 67 19.4 34 1.1 30 30 WNW 16 26 29.96 1015 10 16 N/A
3:51 pm 15:51 Sunny 65 18.3 34 1.1 32 32 NW 14 22 29.97 1015 10 16 N/A
4:51 pm 16:51 Sunny 64 17.8 29 -1.7 27 27 NW 26 43 29.98 1015 10 16 N/A
5:51 pm 17:51 Clear 59 15 32 undefined 36 36 NW 18 30 30.01 1016 10 16 N/A
6:51 pm 18:51 Clear 55 12.8 33 0.6 44 44 NW 14 22 30.05 1018 10 16 N/A
7:51 pm 19:51 Clear 54 12.2 33 0.6 45 45 NW 14 22 30.07 1018 10 16 N/A
8:51 pm 20:51 Clear 52 11.1 34 1.1 50 50 NNW 10 17 30.09 1019 10 16 N/A
9:51 pm 21:51 Clear 50 10 34 1.1 54 54 N 10 17 30.11 1020 10 16 N/A
10:51 pm 22:51 Clear 52 11.1 34 1.1 50 50 NNW 13 20 30.12 1020 10 16 N/A
11:51 pm 23:51 Clear 47 8.3 34 1.1 61 61 NNW 8 13 30.13 1020 10 16 N/A

Powered by AerisWeather